Regional Weather Roundup
Issued by NWS

Home | Current Version | Previous Version | Graphics & Text | Print | Product List | Glossary Off
Versions: 1 2 3 4 5 6 7 8 9 10 11 12 13 14 15 16 17 18 19 20 21 22 23 24 25 26 27 28 29 30 31 32 33 34 35 36 37 38 39 40 41 42 43 44 45 46 47 48 49 50

000
ASUS43 KMKX 160311
RWRWI

WISCONSIN REGIONAL WEATHER ROUNDUP
NATIONAL WEATHER SERVICE MILWAUKEE/SULLIVAN WI
1000 PM CDT MON SEP 15 2014

NOTE: "FAIR" INDICATES FEW OR NO CLOUDS BELOW 12,000 FEET WITH NO
SIGNIFICANT WEATHER AND/OR OBSTRUCTIONS TO VISIBILITY.

WIZ001-002-006>008-014>016-023>028-160400-
NORTHWEST WISCONSIN

CITY           SKY/WX    TMP DP  RH WIND       PRES   REMARKS
SUPERIOR ARPT  CLEAR     43  39  86 SW6       30.16S
ASHLAND        CLEAR     43  38  82 SW8       30.16S
HAYWARD        CLEAR     39  37  92 CALM      30.19R
SIREN          CLEAR     40  39  95 CALM      30.20S
RICE LAKE      CLEAR     42  40  94 CALM      30.21S
LADYSMITH      CLEAR     41  39  93 CALM      30.20S
EAU CLAIRE     CLEAR     43  39  86 CALM      30.20S
MENOMONIE      CLEAR     47  41  80 SW6       30.21S
NEW RICHMOND   CLEAR     43  42  96 CALM      30.22R
OSCEOLA        CLEAR     42  42  99 CALM      30.24R
$$

WIZ003>005-009-010-017-018-160400-
NORTH CENTRAL WISCONSIN

CITY           SKY/WX    TMP DP  RH WIND       PRES   REMARKS
WOODRUFF       CLEAR     39  37  91 CALM      30.16R
RHINELANDER    NOT AVBL
EAGLE RIVER    CLEAR     36  36 100 CALM      30.15S FOG
LAND O LAKES   CLEAR     35  35 100 CALM      30.15S
PHILLIPS       CLEAR     38  37  99 CALM      30.17R
TOMAHAWK       CLEAR     35  33  94 CALM      30.18S
MEDFORD        CLEAR     37  37  98 CALM      30.19R
MERRILL        MOCLDY    40  38  91 CALM      30.18R
$$

WIZ029-030-035-036-043>047-160400-
CENTRAL WISCONSIN

CITY           SKY/WX    TMP DP  RH WIND       PRES   REMARKS
WAUSAU         CLEAR     46  40  79 CALM      30.17R
MOSINEE        CLEAR     45  41  87 NW7       30.19R
MARSHFIELD     CLEAR     43  39  86 NW5       30.18R
STEVENS POINT  CLEAR     46  39  77 CALM      30.18R
WAUPACA        CLEAR     50  44  80 W5        30.17R
WAUTOMA        CLEAR     45  44  96 CALM      30.18R
WISC RAPIDS    CLEAR     46  41  82 NW5       30.20R
CAMP DOUGLAS   CLEAR     43  43 100 W3        30.19R
$$

WIZ011>013-019>022-031-037>040-048>050-160400-
NORTHEAST WISCONSIN

CITY           SKY/WX    TMP DP  RH WIND       PRES   REMARKS
ANTIGO         CLEAR     42  39  88 NW5       30.17S
STURGEON BAY   MOCLDY    50  46  87 SW3       30.12S
GREEN BAY      CLEAR     46  45  96 W5        30.14R
MANITOWOC      CLEAR     49  47  93 W3        30.14S
APPLETON       PTCLDY    50  48  93 W9        30.15S
CLINTONVILLE   CLEAR     46  43  87 NW6       30.16R
OSHKOSH        CLEAR     51  47  86 W6        30.15R
$$

WIZ032>034-041-042-053>061-160400-
SOUTHWEST WISCONSIN

CITY           SKY/WX    TMP DP  RH WIND       PRES   REMARKS
LA CROSSE      CLEAR     49  46  90 CALM      30.22R
SPARTA         CLEAR     40  40  98 CALM      30.22R
VIROQUA        FAIR      46  46 100 NW5       30.21R
BOSCOBEL       PTCLDY    45  43  93 CALM      30.22R FOG
PRAIRIE DU CHI CLEAR     46  44  93 CALM      30.22R
PLATTEVILLE    FAIR      45  43  93 CALM      30.21S
$$

WIZ056-057-062-063-064-067-068-160400-
SOUTH CENTRAL WISCONSIN

CITY           SKY/WX    TMP DP  RH WIND       PRES   REMARKS
BARABOO/DELLS  CLEAR     44  42  93 CALM      30.18R
LONE ROCK      PTCLDY    49  44  83 CALM      30.21R HAZE
WATERTOWN      CLEAR     44  44 100 CALM      30.16S FOG
MADISON        CLEAR     46  44  93 CALM      30.18S
MIDDLETON      FAIR      43  43  99 CALM      30.20R
MONROE         CLEAR     50  45  81 W8        30.19S
JANESVILLE     CLEAR     46  46 100 NW5       30.18S
$$

WIZ051-052-058>065-066-070>072-160400-
SOUTHEAST WISCONSIN

CITY           SKY/WX    TMP DP  RH WIND       PRES   REMARKS
MILWAUKEE      CLEAR     51  48  89 NW5       30.16S
WAUKESHA       CLEAR     43  43 100 CALM      30.18R
MILWAUKEE/TIMM CLEAR     45  43  93 CALM      30.18R
RACINE         CLEAR     49  47  93 W6        30.18R
BURLINGTON     CLEAR     42  42 100 SW6       30.17S
KENOSHA        CLEAR     44  42  93 W3        30.17R FOG
FOND DU LAC    CLEAR     48  45  89 SW5       30.15F
SHEBOYGAN      CLEAR     47  45  93 W6        30.15S
WEST BEND      CLEAR     45  43  93 W3        30.16R
JUNEAU         CLEAR     45  44  98 SW3       30.18S
$$

LSZ147-162-160400-
LAKE SUPERIOR

STATION/POSITION TIME  TEMP    WIND        PRES    WAVE
                       AIR SEA DIR/SP/G            HT/PER
                 (UTC) (F)     (DEG/KT/KT) (MB)    (FT/S)
W MID LAKE BUOY  0250   50 47  240/ 10/ 12 1019.6F
DEVILS ISLAND    0300   51     230/ 10/ 12 1020.6S
PORT WING        0200   49     200/  7/  9 1021.0S
SAXON HARBOR     0240   46     200/  7/  9 1020.7S
$$

LMZ867-665-643>646-160400-
LAKE MICHIGAN

STATION/POSITION TIME  TEMP    WIND        PRES    WAVE
                       AIR SEA DIR/SP/G            HT/PER
                 (UTC) (F)     (DEG/KT/KT) (MB)    (FT/S)
N MID LAKE BUOY  0250   56 58   20/  8/ 10 1019.8R   1
NORTHPORT PIER   0200   50     240/  1/  3 1019.3S
KEWAUNEE LAKESHO 0200   52     300/  3/  5 1019.2R
SHEBOYGAN LAKESH 0300   52 52  260/  8/  9 1021.2S
PORT WASHINGTON  0240   51     290/  5/  6 1021.3R
ATWATER BUOY     0300   54     270/ 10/ 12 1022.1R
MILWAUKEE LAKESH 0200   53     300/  5/  6   N/A
S MID LAKE BUOY  0250   57 64  340/ 12/ 14 1020.7R   2/ 4
KENOSHA   LAKESH 0300   51     290/  7/  8 1021.3R
$$

TC  - TEMPERATURE IN CELSIUS
VSB - VISIBILITY IN STATUTE MILES
WCI - WIND CHILL INDEX
HX  - HEAT INDEX




USA.gov is the U.S. government's official web portal to all federal, state and local government web resources and services.